Kalamazoo, MI

7:24 PM EST on January 20, 2017 (GMT -0500)
Kalamazoo-Battle Creek International

Weather History for KAZO - April, 2013

Change the Weather History Date:

Sunday, April 14, 2013

  Actual Average Record
Temperature  
Mean Temperature 44 °F 48 °F  
Max Temperature 56 °F 59 °F 79 °F (2003)
Min Temperature 31 °F 38 °F 22 °F (1975)
Degree Days  
Heating Degree Days 21 17  
Month to date heating degree days 320 269  
Since 1 July heating degree days 5890 5926  
Cooling Degree Days 0 0  
Month to date cooling degree days 0 0  
Year to date cooling degree days 0 0  
Moisture  
Dew Point 33 °F    
Average Humidity 67    
Maximum Humidity 82    
Minimum Humidity 51    
Precipitation  
Precipitation 0.01 in 0.11 in 1.28 in (1968)
Month to date precipitation 2.15 1.35  
Year to date precipitation 7.49 6.84  
Sea Level Pressure  
Sea Level Pressure 29.99 in    
Wind  
Wind Speed 8 mph (ESE)    
Max Wind Speed 18 mph    
Max Gust Speed 26 mph    
Visibility 10 miles    
Events Snow    
T = Trace of Precipitation, MM = Missing Value Source: NWS Daily Summary

Daily Weather History Graph

Daily Weather History Graph

Search for Another Location

Airport or City:

Trip Planner

Search our weather history database for the weather conditions in past years. The results will help you decide how hot, cold, wet, or windy it might be!

Date:

Astronomy

Apr. 14, 2013 Rise Set
Actual Time 7:02 AM EDT 8:22 PM EDT
Civil Twilight 6:33 AM EDT 8:51 PM EDT
Nautical Twilight 5:58 AM EDT 9:27 PM EDT
Astronomical Twilight 5:21 AM EDT 10:04 PM EDT
Moon 9:35 AM EDT (4/14) No Moon Set
Length of Visible Light 14h 18m
Length of Day
13h 20m
Waxing Crescent, 17% of the Moon is Illuminated
Apr 14
Waxing Crescent
Apr 18
First Quarter
Apr 25
Full
May 2
Last Quarter
May 9
New

Hourly Weather History & Observations

Time (EDT) Temp. Windchill Dew Point Humidity Pressure Visibility Wind Dir Wind Speed Gust Speed Precip Events Conditions
12:53 AM 36.0 °F - 27.0 °F 70% 30.02 in 10.0 mi Calm Calm - N/A   Mostly Cloudy
1:53 AM 32.0 °F 28.7 °F 26.1 °F 79% 30.03 in 10.0 mi WSW 3.5 mph - N/A   Partly Cloudy
2:53 AM 33.1 °F 28.7 °F 27.0 °F 78% 30.04 in 10.0 mi West 4.6 mph - N/A   Overcast
3:53 AM 34.0 °F - 28.0 °F 79% 30.04 in 10.0 mi Calm Calm - N/A   Overcast
4:53 AM 35.1 °F - 28.0 °F 76% 30.04 in 10.0 mi Calm Calm - N/A   Overcast
5:53 AM 35.1 °F - 30.0 °F 82% 30.06 in 10.0 mi Calm Calm - N/A   Overcast
6:53 AM 36.0 °F - 28.9 °F 76% 30.06 in 10.0 mi Calm Calm - N/A   Overcast
7:53 AM 36.0 °F 33.3 °F 28.9 °F 76% 30.07 in 10.0 mi East 3.5 mph - N/A   Overcast
8:53 AM 37.0 °F 33.3 °F 28.9 °F 73% 30.06 in 10.0 mi ENE 4.6 mph - N/A   Overcast
9:53 AM 37.9 °F 32.1 °F 28.0 °F 68% 30.05 in 10.0 mi East 8.1 mph - N/A   Overcast
10:53 AM 39.0 °F 34.0 °F 27.0 °F 62% 30.08 in 10.0 mi ESE 6.9 mph - N/A   Overcast
11:53 AM 37.9 °F 32.7 °F 30.0 °F 73% 30.08 in 6.0 mi East 6.9 mph - 0.01 in Snow Light Snow
12:53 PM 42.1 °F 35.7 °F 34.0 °F 73% 30.04 in 10.0 mi East 11.5 mph - 0.00 in   Mostly Cloudy
1:53 PM 48.0 °F - 34.0 °F 58% 30.00 in 10.0 mi ESE 10.4 mph - N/A   Scattered Clouds
2:53 PM 51.1 °F - 35.1 °F 54% 29.98 in 10.0 mi ESE 12.7 mph 16.1 mph N/A   Clear
3:53 PM 54.0 °F - 37.0 °F 53% 29.96 in 10.0 mi ESE 11.5 mph 21.9 mph N/A   Clear
4:53 PM 55.9 °F - 37.9 °F 51% 29.92 in 10.0 mi ESE 8.1 mph 19.6 mph N/A   Clear
5:53 PM 55.0 °F - 39.0 °F 55% 29.91 in 10.0 mi SE 19.6 mph 26.5 mph N/A   Clear
6:53 PM 55.0 °F - 41.0 °F 59% 29.90 in 10.0 mi SE 13.8 mph 23.0 mph N/A   Clear
7:53 PM 53.1 °F - 41.0 °F 64% 29.88 in 10.0 mi ESE 8.1 mph - N/A   Clear
8:53 PM 50.0 °F - 41.0 °F 71% 29.88 in 9.0 mi ESE 9.2 mph 17.3 mph N/A   Clear
9:53 PM 48.0 °F - 39.9 °F 74% 29.88 in 9.0 mi SE 10.4 mph - N/A   Clear
10:53 PM 46.9 °F - 39.0 °F 74% 29.87 in 10.0 mi SE 9.2 mph - N/A   Clear
11:53 PM 46.0 °F 41.4 °F 37.9 °F 73% 29.85 in 10.0 mi SE 9.2 mph - N/A   Clear